FENGYUN 1C DEB, 38512

Orbit data source: Space-Track

FENGYUN 1C DEB, 38512 is space debris in SSO originally from a launch on Mon, 10 May 1999 UTC launched from the Taiyaun Space Center, China (TSC). Fengyun 1C debris stems from the Chinese weather satellite Fengyun-1C, which was intentionally destroyed by a Chinese anti-satellite missile in 2007. This event dramatically increased the amount of space debris, with thousands of trackable fragments posing hazards to satellites and human spaceflight. The Fengyun 1C debris cloud has become a focal point in discussions about space sustainability and the need for international regulations to prevent the creation of new debris.

Loading next visibility...
Identifier
38512, 1999-025ESX
Orbit
SSO
Country
Flag of CNCN / PRC
Related business
Manufacturer
Unknown
Mission
Spacecraft
Bus & Motor
Unknown
Mass
Unknown
Launch date (UTC)
1999-05-10 (27 years ago)
Launch vehicle
Unknown
Launch site
Taiyaun Space Center, China (TSC)
Object type
Payload
Rocket body
Debris
Shape & HBR
Unknown shape, 0.1 m
Radar Cross Section
Small (<0.1 m²)

Expand to show TLE details & history
Last TLE update: 5 days ago

TLE from 5 days ago
0 FENGYUN 1C DEB
1 38512U 99025ESX 26232.56562923  .00000807  00000-0  73853-3 0  9991
2 38512  98.3638  88.7598 0225178 148.4276 213.0615 13.74590059630156
Epoch: 2026-08-20T13:34Z
TLE epoch observation values (Epoch: 2026-08-20T13:34:30.365Z)
Latitude
-0.00002°
Longitude
-83.76963°
Altitude
1,126.032 km
Speed
7.22 km/s
True Right ascension
05h 55m 02s
True Declination
0° 00' 00"
Sunlit
Object was in daylight at epoch
Visualization orbit readout
Latitude
Unknown
Longitude
Unknown
Altitude
Unknown
Speed
Unknown
Apparent Right ascension
Unknown
Apparent Declination
Unknown
Sunlit
N/A
Visualization observer readout
Local Sidereal Time
09:25:28
Azimuth
Unknown
Elevation
Unknown
Doppler factor
Unknown
Orbital elements
Apogee altitude
1,146.036 km
Perigee altitude
814.643 km
Semi-major axis
7,358.477 km
Eccentricity
0.02252
Inclination
98.3638°
RAAN
88.7598°
Arg. of periapsis
148.4276°
True anomaly
211.68642°
Mean anomaly
213.0615°
Eccentric anomaly
212.37075°
Mean motion
3.43844 °/min
Orbital period
104.7 mins
BSTAR
0.00073853
Loading maneuver chart data...
Computing Atmospheric mass density...

Documentation

Showing up to 5 results
|